Wind_Speed
20 19 18 15 16 14 13 11 12 24 22 27 28 30 29 23 20 17 17 21 23 20 21 25 22 21 16 18 19 17 17 17 17 17 16 15 14 15 14 15 16 18 19 20
24 23 21 22 24 23 22 21 23 27 33 28 27 20 17 19 17 22 21 21 20 21 21 21 20 19 17 18 18 17 16 16 16 16 15 14 13 13 14 15 16 17 18 18
27 28 23 24 37 33 32 28 25 27 27 19 19 16 16 18 23 21 21 24 20 18 18 17 17 15 18 17 17 16 16 15 14 14 14 13 12 13 14 15 15 15 16 18
13 11 8 24 22 16 21 23 21 21 22 24 18 17 18 21 23 24 26 21 19 15 15 17 15 15 17 16 17 16 15 14 13 13 13 12 12 12 13 14 15 15 16 18
14 19 21 16 7 15 11 17 16 20 20 19 21 20 21 21 24 22 25 24 17 14 14 16 17 16 16 16 17 15 14 13 12 12 11 11 12 13 13 13 14 16 16 17
12 9 7 11 14 21 14 17 15 21 23 20 16 17 17 22 22 24 23 13 11 12 14 16 16 15 15 16 15 14 13 12 10 10 10 12 13 12 12 13 13 14 15 16
26 18 17 22 13 11 17 18 18 19 16 17 20 17 18 21 23 22 19 16 13 13 15 15 16 15 14 14 13 13 11 10 9 9 11 12 12 12 12 12 12 13 15 16
24 17 16 23 17 31 31 25 13 16 20 18 15 16 21 24 24 23 18 18 17 16 16 14 16 15 13 12 12 11 10 9 8 9 10 10 9 9 10 11 12 14 16 18
19 18 15 7 12 11 15 15 20 19 20 16 18 19 20 24 23 21 19 18 18 17 16 15 16 13 12 11 10 10 9 8 9 8 8 8 8 8 9 11 13 15 17 19
23 27 24 20 21 22 18 18 22 18 16 18 23 20 23 26 26 20 19 20 18 18 16 17 15 12 11 11 9 9 9 8 8 7 8 8 8 9 10 12 15 16 17 19
23 23 18 16 19 24 20 17 21 22 20 20 20 23 24 22 25 22 21 21 19 18 16 17 15 12 13 11 8 8 9 10 9 8 8 8 9 10 11 14 17 19 20 20
22 20 19 18 19 18 16 17 19 21 24 25 23 24 21 20 21 17 16 17 16 16 16 15 13 13 12 9 8 9 11 10 9 9 9 10 11 14 14 18 19 20 22 23
27 25 27 27 29 25 25 25 25 25 27 27 22 19 18 20 19 17 17 17 15 15 15 13 11 12 11 10 11 11 11 10 11 11 12 14 15 17 18 20 21 22 24 26
23 26 26 25 29 30 31 29 29 31 30 26 22 19 19 19 19 17 18 16 15 14 12 11 12 13 12 12 11 10 11 13 13 14 15 17 19 20 21 22 23 25 26 27
22 24 28 27 28 28 30 29 29 29 27 24 20 17 19 19 19 18 17 15 14 12 11 12 14 13 11 11 11 12 14 14 15 17 19 20 21 22 23 24 26 26 27 29
23 25 24 26 28 27 22 20 25 26 26 25 23 19 21 21 20 18 15 13 13 12 13 14 13 12 12 12 13 14 15 16 18 21 21 22 22 22 24 26 27 28 29 31
20 22 22 26 24 24 24 24 25 20 21 22 21 22 23 22 20 17 14 14 14 13 14 14 14 14 14 14 15 16 17 20 21 22 23 23 22 23 25 28 30 30 31 31
18 16 15 17 21 25 26 25 25 21 20 22 26 20 22 23 20 18 16 15 15 14 14 14 14 14 15 16 16 17 19 21 21 21 22 23 22 26 27 29 31 32 32 32
15 14 16 17 15 16 23 29 27 22 21 22 22 22 23 23 18 18 15 15 14 14 14 14 15 15 16 18 18 18 19 20 20 21 23 24 26 26 29 30 30 31 33 31
10 13 15 16 19 19 18 19 27 26 23 24 25 21 23 16 17 16 15 15 16 16 15 15 14 15 18 18 18 19 20 20 22 23 24 25 26 28 28 28 30 31 29 29
21 20 21 18 16 18 17 16 18 23 25 23 21 19 17 17 17 17 16 14 14 14 15 15 15 16 19 18 18 20 21 22 22 23 23 26 27 28 29 31 29 28 28 29
23 25 26 22 14 12 14 18 20 20 19 19 19 16 16 16 16 15 14 13 14 15 15 14 15 18 18 18 19 20 21 21 22 23 25 25 27 29 29 28 28 28 28 28
25 24 20 16 12 14 17 18 20 17 18 16 13 14 14 14 15 14 12 14 14 15 15 15 17 18 18 18 19 19 20 21 22 23 24 26 27 26 26 27 28 27 27 26
22 18 14 12 11 11 12 13 15 16 16 15 15 14 13 13 13 12 12 12 13 15 17 17 17 18 17 18 19 19 19 21 22 24 24 24 24 25 26 26 26 26 26 25
17 14 12 13 13 13 14 13 12 13 13 12 12 12 12 12 11 11 12 14 16 17 17 16 16 16 17 17 18 18 20 21 22 23 22 23 24 24 25 25 25 25 25 24
14 12 11 10 9 8 9 9 10 11 11 11 11 11 11 10 11 13 14 15 16 16 16 15 15 16 17 17 18 19 19 21 21 21 22 23 23 24 25 25 25 24 23 22
11 9 10 10 9 8 9 10 10 11 11 11 11 10 10 11 13 14 14 14 15 16 15 15 15 16 17 17 17 19 20 20 21 22 21 22 23 25 25 24 23 22 21 20
Wind_Direction
229 223 230 237 235 235 239 249 254 268 268 273 267 279 287 289 290 297 298 296 298 294 289 291 289 290 291 293 296 298 294 296 302 309 317 320 320 322 327 334 340 346 348 350
232 236 247 255 255 259 260 264 269 271 273 284 280 279 285 289 280 296 307 304 307 289 281 282 278 286 287 291 291 293 297 302 308 312 318 320 319 323 331 339 346 345 347 346
247 248 262 266 260 264 268 269 275 273 279 279 283 279 278 275 292 299 306 312 302 289 277 269 274 280 288 292 292 295 297 301 305 309 312 315 319 328 335 340 341 344 345 347
231 205 229 253 265 263 262 265 264 272 275 265 268 270 276 288 301 311 317 309 303 281 281 279 278 287 292 290 291 293 295 296 300 304 309 314 319 328 334 337 337 340 346 346
206 215 252 249 258 242 248 252 245 259 261 249 255 270 288 300 305 306 309 305 291 274 279 281 285 289 288 288 290 293 292 293 296 300 306 313 323 327 332 337 337 338 339 342
212 227 229 280 287 246 266 267 262 247 244 250 267 280 301 305 305 308 315 304 302 279 274 278 284 285 288 288 289 288 286 286 291 299 309 316 317 323 327 329 332 332 337 339
215 238 258 262 239 227 255 258 267 242 239 254 261 294 307 314 315 312 305 293 280 281 281 286 286 287 290 287 286 284 280 281 287 299 311 309 315 318 322 327 330 335 336 339
226 238 261 263 260 243 261 266 226 229 241 252 275 298 308 311 306 302 288 287 289 288 288 285 285 292 291 285 285 281 274 273 284 302 295 301 311 319 324 330 333 338 340 342
232 243 238 269 274 271 226 217 233 244 264 267 281 301 305 311 309 299 280 280 286 288 286 282 284 285 280 282 282 273 265 262 290 288 292 305 311 318 324 330 334 339 340 339
248 248 265 264 266 265 251 245 259 266 272 279 289 290 306 312 307 299 280 278 283 289 283 279 282 282 280 273 268 258 252 270 282 279 289 297 307 316 323 328 333 332 333 336
241 247 249 250 247 253 248 250 259 271 278 283 288 292 301 306 305 296 283 283 286 284 282 283 280 279 274 275 267 255 257 278 270 273 281 293 302 310 319 327 328 326 326 329
253 253 252 239 237 239 242 252 260 263 269 280 289 291 296 306 300 285 292 296 287 282 279 280 270 270 274 269 252 250 263 259 260 268 281 294 299 307 313 321 323 323 322 325
265 264 264 266 254 254 255 258 264 275 279 286 291 283 296 306 294 286 295 295 282 275 277 272 264 264 259 253 252 251 255 256 262 270 284 291 298 302 306 312 317 319 319 321
257 257 261 264 265 264 265 264 265 268 268 275 269 280 298 298 287 285 286 282 272 276 275 260 253 254 252 253 248 251 252 257 263 272 282 291 296 302 305 312 316 318 318 319
270 268 266 264 261 261 263 262 259 264 267 268 279 283 297 291 284 276 275 273 272 272 259 247 245 248 247 246 245 245 249 256 266 275 283 288 294 301 306 310 312 313 315 317
273 272 269 265 265 261 251 244 249 259 261 270 276 281 290 284 280 274 272 268 265 254 241 240 241 241 240 241 247 254 259 264 269 275 280 286 292 298 302 304 306 310 313 315
271 270 274 269 261 249 233 238 244 259 265 262 270 275 282 280 275 272 265 257 251 245 239 240 239 237 238 245 254 263 269 272 273 276 280 285 292 296 300 303 305 306 309 311
264 271 278 272 249 237 235 242 252 261 271 274 262 260 274 277 267 264 256 248 244 239 238 239 239 240 248 257 263 269 273 274 277 278 281 286 290 295 299 303 305 306 309 311
285 291 278 272 268 264 252 244 249 257 271 274 283 279 268 266 260 259 245 243 237 234 238 242 244 251 261 265 268 272 272 273 274 278 282 286 292 296 300 302 303 306 308 309
317 307 294 283 269 260 261 256 248 253 260 269 282 270 264 258 256 241 236 231 227 231 244 252 258 264 269 271 273 271 272 272 277 283 287 292 297 299 300 302 305 306 306 306
301 304 323 306 274 251 241 244 246 248 256 270 272 252 253 241 229 231 230 230 234 243 249 257 265 268 269 272 272 270 276 281 284 288 292 297 298 302 304 304 304 305 306 307
297 302 307 306 280 247 236 242 249 257 261 260 254 245 235 228 228 229 230 238 247 251 257 264 267 268 270 272 271 274 279 284 287 291 295 298 301 302 303 304 305 305 306 308
301 303 298 288 270 246 242 250 256 251 248 258 239 225 219 220 226 234 240 244 249 258 265 266 267 269 272 272 274 277 282 286 290 293 297 299 301 303 304 304 304 306 307 307
297 292 279 275 267 257 251 247 241 242 242 230 223 222 223 231 240 248 249 255 259 261 265 269 270 271 271 273 277 283 286 289 292 295 298 302 303 304 304 304 306 307 306 307
283 275 272 268 257 246 244 241 231 219 216 217 220 225 234 243 247 247 250 255 262 268 271 272 271 271 272 276 281 284 287 291 295 300 303 303 305 305 305 306 307 307 307 306
268 264 259 243 225 209 205 208 211 216 221 227 233 240 245 247 248 251 258 262 266 270 273 275 275 276 277 280 283 288 292 295 299 302 304 306 307 306 307 309 308 308 307 306
248 251 237 225 219 218 220 223 225 229 234 238 241 245 249 252 255 258 262 267 269 273 277 276 276 278 281 285 289 294 298 300 304 307 308 310 310 310 311 310 309 308 307 306
Height
3045 3046 3049 3050 3050 3051 3051 3052 3052 3051 3052 3055 3054 3053 3051 3051 3050 3050 3049 3048 3045 3043 3041 3039 3037 3035 3032 3030 3029 3026 3024 3023 3021 3018 3016 3013 3011 3008 3006 3003 2999 2995 2991 2987
3041 3042 3045 3044 3044 3045 3046 3047 3047 3047 3043 3047 3044 3044 3045 3045 3045 3045 3044 3041 3039 3037 3035 3033 3032 3030 3028 3026 3025 3022 3021 3019 3016 3014 3012 3011 3009 3006 3003 3000 2996 2993 2990 2987
3035 3039 3040 3040 3036 3040 3039 3040 3040 3039 3041 3039 3037 3038 3039 3040 3040 3038 3037 3034 3032 3030 3029 3028 3027 3025 3024 3022 3020 3018 3017 3015 3013 3011 3010 3008 3006 3003 3001 2998 2995 2991 2988 2985
3030 3034 3035 3027 3031 3033 3033 3032 3033 3034 3034 3034 3034 3035 3036 3036 3034 3031 3029 3028 3027 3025 3024 3023 3021 3020 3019 3017 3016 3015 3013 3011 3009 3008 3007 3005 3003 3001 2998 2996 2993 2990 2987 2984
3025 3026 3023 3022 3026 3027 3026 3026 3026 3027 3027 3028 3029 3030 3031 3030 3029 3026 3024 3021 3019 3019 3018 3017 3017 3016 3014 3012 3011 3010 3008 3007 3006 3005 3004 3003 3001 2999 2997 2994 2991 2988 2985 2982
3021 3022 3018 3016 3020 3021 3022 3018 3020 3022 3022 3024 3025 3025 3026 3023 3021 3020 3018 3015 3013 3013 3013 3012 3012 3011 3009 3008 3007 3006 3005 3004 3003 3003 3001 3000 2998 2996 2994 2992 2990 2987 2984 2981
3014 3014 3009 3012 3019 3017 3016 3018 3016 3018 3020 3021 3022 3022 3020 3017 3015 3014 3012 3011 3010 3009 3009 3008 3006 3005 3005 3003 3002 3002 3001 3001 3001 3000 2998 2997 2995 2994 2992 2990 2988 2986 2983 2979
3009 3011 3007 3008 3011 3011 3011 3010 3011 3012 3014 3015 3017 3016 3015 3012 3010 3008 3007 3006 3004 3004 3003 3003 3001 3001 3000 2999 2998 2998 2998 2998 2998 2997 2996 2995 2994 2992 2990 2988 2986 2984 2981 2977
3002 2999 3001 3003 3005 3004 3005 3006 3006 3008 3009 3010 3011 3010 3009 3006 3003 3002 3002 3001 2999 2999 2998 2998 2997 2997 2996 2995 2995 2995 2995 2995 2995 2994 2993 2992 2991 2990 2988 2986 2984 2981 2978 2975
2996 2995 2997 2999 3001 3001 3001 3002 3003 3004 3005 3005 3005 3004 3002 2999 2996 2995 2995 2995 2995 2994 2994 2993 2993 2992 2992 2991 2991 2992 2992 2992 2991 2991 2990 2990 2989 2988 2986 2984 2982 2979 2976 2973
2989 2991 2993 2994 2995 2996 2996 2997 2998 2998 2999 2999 2999 2999 2996 2994 2991 2989 2988 2989 2989 2988 2988 2987 2987 2987 2988 2987 2987 2988 2987 2987 2987 2987 2987 2987 2986 2985 2983 2981 2979 2975 2973 2970
2985 2987 2988 2989 2989 2989 2991 2992 2992 2992 2992 2993 2993 2992 2991 2989 2986 2985 2983 2983 2982 2982 2982 2982 2982 2982 2982 2982 2983 2983 2983 2983 2984 2984 2984 2984 2983 2981 2979 2978 2975 2972 2968 2965
2979 2982 2981 2982 2984 2984 2985 2985 2985 2984 2985 2985 2986 2985 2984 2982 2980 2979 2978 2978 2978 2978 2977 2978 2978 2977 2977 2977 2978 2979 2979 2980 2980 2980 2980 2980 2978 2976 2974 2972 2970 2968 2964 2960
2972 2973 2972 2975 2975 2977 2976 2977 2977 2978 2977 2978 2978 2979 2977 2976 2975 2974 2973 2973 2972 2973 2973 2973 2972 2972 2973 2973 2974 2975 2976 2976 2976 2976 2975 2974 2973 2971 2969 2967 2965 2962 2959 2955
2965 2966 2964 2965 2966 2966 2968 2969 2969 2969 2970 2971 2972 2972 2971 2970 2970 2968 2967 2967 2967 2968 2968 2968 2968 2968 2969 2969 2970 2972 2972 2972 2972 2971 2971 2970 2968 2966 2964 2962 2959 2956 2953 2950
2955 2955 2955 2956 2957 2957 2959 2959 2960 2961 2962 2963 2964 2965 2965 2964 2963 2963 2962 2962 2962 2963 2963 2963 2963 2964 2965 2965 2966 2967 2968 2968 2967 2966 2965 2964 2963 2961 2958 2956 2953 2950 2947 2943
2944 2945 2946 2945 2948 2949 2950 2952 2953 2954 2955 2956 2957 2958 2957 2957 2958 2957 2956 2957 2957 2957 2958 2958 2959 2959 2960 2961 2962 2963 2962 2961 2962 2961 2960 2958 2957 2955 2952 2950 2947 2943 2940 2936
2939 2939 2939 2938 2938 2940 2942 2944 2945 2947 2949 2949 2949 2949 2950 2951 2951 2950 2950 2951 2952 2953 2954 2954 2954 2955 2956 2957 2958 2958 2957 2956 2956 2955 2953 2951 2950 2948 2945 2942 2939 2935 2932 2929
2934 2933 2933 2933 2933 2933 2934 2935 2937 2940 2942 2942 2942 2943 2943 2943 2944 2944 2945 2946 2947 2948 2949 2949 2950 2950 2951 2952 2952 2952 2951 2951 2950 2949 2947 2945 2943 2941 2939 2935 2931 2927 2924 2920
2929 2928 2927 2927 2926 2927 2928 2928 2930 2933 2935 2935 2936 2936 2936 2936 2937 2939 2940 2941 2943 2944 2944 2945 2945 2945 2945 2946 2946 2946 2945 2945 2944 2943 2940 2938 2936 2934 2931 2928 2924 2920 2916 2912
2924 2923 2921 2920 2919 2919 2921 2923 2924 2926 2927 2928 2928 2929 2930 2930 2932 2933 2935 2938 2939 2940 2940 2940 2940 2940 2940 2940 2940 2939 2938 2938 2936 2935 2933 2931 2928 2925 2922 2919 2915 2912 2908 2905
2919 2917 2915 2913 2912 2913 2915 2917 2918 2920 2921 2922 2922 2923 2924 2926 2928 2930 2932 2933 2934 2934 2934 2935 2935 2934 2934 2934 2934 2933 2932 2931 2930 2928 2926 2924 2921 2918 2914 2911 2907 2904 2900 2897
2913 2911 2909 2908 2907 2909 2910 2912 2913 2915 2916 2917 2918 2919 2921 2923 2925 2926 2928 2929 2929 2929 2929 2930 2929 2929 2929 2928 2927 2927 2926 2924 2923 2921 2919 2916 2913 2910 2907 2903 2900 2896 2893 2890
2907 2905 2905 2904 2904 2905 2906 2907 2909 2910 2912 2913 2915 2916 2918 2920 2921 2923 2923 2923 2923 2923 2923 2924 2924 2923 2923 2922 2921 2920 2919 2918 2916 2914 2911 2908 2905 2902 2899 2896 2892 2889 2886 2883
2901 2901 2900 2901 2901 2901 2902 2904 2905 2907 2908 2910 2912 2913 2915 2916 2918 2918 2918 2918 2918 2918 2918 2919 2918 2918 2917 2916 2915 2915 2913 2911 2909 2906 2904 2901 2898 2895 2892 2889 2885 2882 2879 2876
2896 2896 2897 2897 2898 2898 2900 2901 2903 2905 2906 2908 2909 2910 2911 2913 2913 2913 2913 2913 2913 2913 2913 2913 2912 2912 2911 2910 2909 2908 2906 2904 2902 2900 2897 2894 2891 2888 2885 2881 2878 2875 2872 2869
2892 2893 2894 2895 2896 2897 2898 2900 2901 2902 2904 2905 2906 2907 2907 2908 2908 2908 2908 2908 2908 2907 2907 2907 2906 2906 2905 2904 2903 2901 2899 2897 2895 2892 2890 2887 2884 2881 2878 2874 2871 2868 2866 2863